[[{"header":{"parameterUnit":"m.s-1","parameterCategory":1,"la1":30.2991,"la2":30.254,"lo1":-89.0895,"lo2":-89.0444,"dy":0.0017,"dx":0.0017,"nx":28,"ny":28,"refTime":"2024-10-13T03:00:00:Z","depth":0,"parameterNumber":2,"parameterNumberName":"U-component_of_WINDS"},"data":[0,0,0,0,0,0,0,0,0,0,0,0,0,0,0,0,0,0,0,0,0,0,0,0,0,0,0,0,0,0,0,0,0,0,0,0,0,0,0,0,0,0,0,0,0,0,0,0,0,0,0,0,0,0,0,0,0,0,5.0038,5.004,0,5.0206,5.0208,5.021,5.0143,5.0139,5.0135,5.0131,5.0306,5.0314,5.0323,0,0,0,0,0,0,0,0,0,0,0,0,0,4.9661,4.9668,5.0038,5.004,5.0042,5.0206,5.0208,5.021,5.0144,5.0139,5.0134,5.0129,5.0304,5.0313,5.0323,0,0,0,0,0,0,0,0,0,0,0,0,0,4.9826,4.9671,5.0037,5.0028,5.0029,5.0205,5.0208,5.0211,5.0145,5.0139,5.0133,5.0127,5.03,5.0312,5.0325,5.052,0,0,5.0363,5.0368,0,0,0,0,0,0,0,0,4.9817,4.984,5.0028,5.0029,5.0031,5.0147,5.0139,5.0315,5.0146,5.0101,5.0131,5.0124,5.0258,5.0274,5.0319,5.0529,5.0536,5.0364,5.0372,5.0377,5.0381,0,0,0,0,0,0,0,4.9806,4.9833,5.0104,5.003,5.0032,5.0016,5.0033,5.0172,5.0211,5.0104,5.01,5.0121,5.0258,5.0307,5.0322,5.0539,5.0364,5.0375,5.0383,5.0387,5.0916,5.0922,0,0,0,0,0,0,4.9794,4.9824,5.0099,5.0109,4.9907,5.0028,5.0047,5.0116,5.0209,5.0218,5.0125,5.0117,5.0288,5.0308,5.0328,5.0562,5.0377,5.0389,5.0396,5.0909,5.0917,5.0924,0,0,0,0,0,0,4.9786,4.9819,5.0092,4.9965,4.9999,5.0041,5.0119,5.0122,5.0171,5.0225,5.0232,5.0168,5.0284,5.031,5.0472,5.0567,5.0394,5.0406,5.0902,5.0912,5.0921,5.1032,0,0,0,0,0,0,4.9775,4.9816,4.9891,4.9968,5.0006,5.0234,5.0125,5.013,5.0192,5.0182,5.0267,5.0275,5.0282,5.0454,5.0485,5.0581,5.0415,5.0893,5.0906,5.0918,5.102,5.1045,5.1066,0,0,0,0,0,4.9762,4.9917,4.9895,4.9929,5.01,5.0239,5.0261,5.0265,5.02,5.0275,5.031,5.0272,5.0552,5.0471,5.0505,5.0607,5.0887,5.0903,5.0917,5.101,5.104,5.1065,0,0,0,0,0,0,4.9852,4.9927,4.9904,5.0088,5.0157,5.0228,5.0323,5.0297,5.0388,5.0375,5.0376,5.0396,5.0563,5.0601,5.051,5.08,5.071,5.0732,5.0769,5.0798,5.082,5.0807,5.0426,0,0,0,0,0,4.9893,4.9999,5.0059,5.0216,5.0252,5.0282,5.0342,5.0339,5.0412,5.0442,5.0488,5.0561,5.0665,5.0733,5.0832,5.1025,5.1042,5.1112,5.1135,5.1153,5.1172,5.1276,5.1307,5.0973,5.0973,5.0972,0,0,4.9979,5.0033,5.01,5.0235,5.0289,5.0399,5.0307,5.0428,5.051,5.046,5.0615,5.0652,5.0733,5.0911,5.0992,5.0948,5.1268,5.1172,5.1186,5.1195,5.1294,5.1326,5.1354,5.0983,5.0981,5.0979,0,0,5.0192,5.0244,5.0379,5.0435,5.0516,5.0535,5.0567,5.0642,5.0664,5.0819,5.0784,5.0881,5.1061,5.112,5.1173,5.1407,5.1375,5.1439,5.1557,5.1658,5.1685,5.1708,5.179,5.182,5.1458,5.1459,5.1459,0,5.0289,5.0453,5.0453,5.0576,5.0636,5.0594,5.0731,5.0785,5.0896,5.0938,5.0887,5.1111,5.1163,5.1353,5.141,5.1455,5.1492,5.143,5.1681,5.1704,5.1726,5.1805,5.1836,5.1466,5.1465,5.1464,5.1463,0,5.0568,5.0682,5.0782,5.0888,5.0959,5.1089,5.1108,5.118,5.117,5.1194,5.1352,5.1413,5.1522,5.1567,5.156,5.1757,5.1727,5.1679,5.1588,5.1765,5.1839,5.1869,5.1476,5.1473,5.1471,5.1469,0,0,5.0844,5.0946,5.0983,5.103,5.1116,5.1205,5.1332,5.1438,5.1499,5.1577,5.1683,5.1835,5.179,5.1851,5.185,5.1938,5.2118,5.1879,5.1881,5.1921,5.2338,5.2373,5.2408,5.2097,5.2103,5.2108,5.2331,0,5.1064,5.1286,5.1288,5.1493,5.1598,5.1559,5.167,5.1735,5.176,5.1853,5.1882,5.1989,5.1922,5.1958,5.2044,5.2078,5.2202,5.2062,5.2197,5.2202,5.2177,5.2447,5.2485,5.2692,5.2359,5.2364,5.2368,0,5.135,5.1434,5.1649,5.1718,5.1762,5.1862,5.1958,5.2047,5.212,5.2132,5.2199,5.2184,5.2313,5.2218,5.2397,5.2302,5.2357,5.2382,5.239,5.2402,5.2295,5.2466,5.2759,5.279,5.2414,5.241,5.2407,0,5.1528,5.1696,5.1845,5.1887,5.1972,5.2042,5.2081,5.2148,5.2211,5.2295,5.2336,5.2435,5.2489,5.2566,5.2578,5.2508,5.2757,5.2663,5.2771,5.2771,5.2825,5.2821,5.313,5.2862,5.2861,5.2861,5.286,0,5.1773,5.1906,5.1926,5.2019,5.2166,5.2167,5.2313,5.2346,5.2405,5.2503,5.2476,5.2569,5.2578,5.2674,5.2684,5.283,5.2855,5.2868,5.2869,5.2871,5.2869,5.2907,5.2892,5.2869,5.2867,5.2865,5.2864,0,5.1998,5.2017,5.2177,5.2244,5.2263,5.2369,5.2426,5.2514,5.2535,5.266,5.2689,5.2724,5.2835,5.2853,5.2985,5.2991,5.3165,5.3152,5.314,5.3138,5.3244,5.3234,5.3588,5.3634,5.3336,5.3339,5.3341,0,5.2152,5.2253,5.233,5.2392,5.2434,5.2536,5.26,5.2604,5.2671,5.276,5.2838,5.2945,5.3032,5.3211,5.3248,5.3348,5.3336,5.3453,5.3351,5.3348,5.3337,5.333,5.334,5.3473,5.3476,5.3479,5.3481,0,5.2425,5.2429,5.252,5.2616,5.2691,5.2767,5.2838,5.2891,5.2905,5.2982,5.3094,5.3161,5.3293,5.34,5.3499,5.3539,5.3513,5.3512,5.3542,5.3545,5.3533,5.354,5.3193,5.3505,5.3502,5.35,5.3499,5.3498,5.2619,5.2706,5.2773,5.2875,5.2929,5.2995,5.3081,5.3112,5.3205,5.3312,5.3309,5.3432,5.3501,5.363,5.3677,5.3773,5.3736,5.3779,5.379,5.3801,5.3811,5.3518,5.3791,5.3791,5.379,5.379,5.3789,0,5.2889,5.2929,5.3024,5.3123,5.3204,5.317,5.3246,5.3316,5.3424,5.349,5.3574,5.3702,5.3806,5.385,5.3952,5.402,5.401,5.4046,5.4041,5.4051,5.3839,5.3802,5.4052,5.4052,5.4052,5.4052,5.4052,5.4052,5.3039,5.3184,5.3196,5.3367,5.3406,5.3525,5.3571,5.3632,5.3684,5.3828,5.3913,5.3941,5.3998,5.4103,5.4196,5.4206,5.4244,5.4286,5.4291,5.4092,5.4066,5.404,5.4006,5.4294,5.4295,5.4494,5.4496,5.4498]},{"header":{"parameterUnit":"m.s-1","parameterCategory":1,"la1":30.2991,"la2":30.254,"lo1":-89.0895,"lo2":-89.0444,"dy":0.0017,"dx":0.0017,"nx":28,"ny":28,"refTime":"2024-10-13T03:00:00:Z","depth":0,"parameterNumber":3,"parameterNumberName":"V-component_of_WINDS"},"data":[0,0,0,0,0,0,0,0,0,0,0,0,0,0,0,0,0,0,0,0,0,0,0,0,0,0,0,0,0,0,0,0,0,0,0,0,0,0,0,0,0,0,0,0,0,0,0,0,0,0,0,0,0,0,0,0,0,0,-0.2651,-0.2652,0,-0.2679,-0.268,-0.268,-0.2681,-0.2681,-0.268,-0.268,-0.2711,-0.2712,-0.2713,0,0,0,0,0,0,0,0,0,0,0,0,0,-0.2601,-0.2602,-0.2651,-0.2652,-0.2652,-0.2679,-0.268,-0.268,-0.2681,-0.2681,-0.268,-0.268,-0.2711,-0.2712,-0.2714,0,0,0,0,0,0,0,0,0,0,0,0,0,-0.2625,-0.2602,-0.2651,-0.2656,-0.2656,-0.2679,-0.268,-0.268,-0.2681,-0.2681,-0.268,-0.268,-0.271,-0.2712,-0.2714,-0.2735,0,0,-0.2719,-0.272,0,0,0,0,0,0,0,0,-0.2624,-0.2627,-0.2655,-0.2655,-0.2656,-0.2676,-0.2673,-0.2699,-0.2681,-0.2672,-0.268,-0.2679,-0.27,-0.2703,-0.2709,-0.2736,-0.2738,-0.2719,-0.272,-0.2721,-0.2721,0,0,0,0,0,0,0,-0.2622,-0.2626,-0.2662,-0.2655,-0.2656,-0.2657,-0.266,-0.2678,-0.2689,-0.2673,-0.2673,-0.2676,-0.27,-0.2707,-0.271,-0.2738,-0.2719,-0.2721,-0.2722,-0.2722,-0.2786,-0.2786,0,0,0,0,0,0,-0.2619,-0.2624,-0.2662,-0.2663,-0.2638,-0.2658,-0.2662,-0.267,-0.2688,-0.2691,-0.2676,-0.2676,-0.2705,-0.2708,-0.2711,-0.2738,-0.2721,-0.2723,-0.2724,-0.2785,-0.2786,-0.2786,0,0,0,0,0,0,-0.2618,-0.2622,-0.266,-0.2644,-0.2649,-0.266,-0.267,-0.2671,-0.2678,-0.2691,-0.2693,-0.2681,-0.2704,-0.2709,-0.2729,-0.2739,-0.2723,-0.2725,-0.2784,-0.2785,-0.2786,-0.2791,0,0,0,0,0,0,-0.2617,-0.2622,-0.263,-0.2644,-0.265,-0.2677,-0.267,-0.2672,-0.2681,-0.268,-0.2697,-0.2699,-0.2704,-0.2726,-0.2731,-0.2741,-0.2726,-0.2783,-0.2785,-0.2786,-0.279,-0.2792,-0.2793,0,0,0,0,0,-0.2615,-0.263,-0.263,-0.2634,-0.2659,-0.2678,-0.2681,-0.2686,-0.2682,-0.269,-0.2698,-0.2698,-0.2737,-0.2729,-0.2733,-0.2744,-0.2783,-0.2784,-0.2786,-0.2789,-0.2791,-0.2793,0,0,0,0,0,0,-0.2617,-0.2632,-0.2632,-0.2652,-0.2664,-0.2678,-0.2688,-0.2689,-0.2702,-0.2702,-0.2709,-0.2712,-0.2733,-0.2741,-0.2731,-0.2766,-0.2759,-0.2762,-0.276,-0.2763,-0.2764,-0.2762,-0.2728,0,0,0,0,0,-0.262,-0.2633,-0.2646,-0.2662,-0.2668,-0.2677,-0.2685,-0.2689,-0.2701,-0.2706,-0.2716,-0.2729,-0.2744,-0.2754,-0.2768,-0.2791,-0.2795,-0.2801,-0.2803,-0.2804,-0.2806,-0.282,-0.2823,-0.2791,-0.2791,-0.2791,0,0,-0.2626,-0.2636,-0.2644,-0.2663,-0.2672,-0.2686,-0.2681,-0.2696,-0.2707,-0.2709,-0.2728,-0.2736,-0.2751,-0.2773,-0.2783,-0.278,-0.2816,-0.2806,-0.2807,-0.2808,-0.2822,-0.2825,-0.2827,-0.2792,-0.2792,-0.2792,0,0,-0.2644,-0.2653,-0.2668,-0.2677,-0.2691,-0.2697,-0.27,-0.2715,-0.272,-0.274,-0.2741,-0.2755,-0.278,-0.2791,-0.28,-0.2823,-0.2824,-0.2828,-0.2837,-0.285,-0.2853,-0.2855,-0.2864,-0.2867,-0.283,-0.283,-0.283,0,-0.265,-0.2671,-0.2676,-0.2691,-0.27,-0.2701,-0.2717,-0.2726,-0.2744,-0.2751,-0.2747,-0.278,-0.279,-0.2814,-0.282,-0.2827,-0.2832,-0.2826,-0.2852,-0.2854,-0.2856,-0.2865,-0.2868,-0.283,-0.283,-0.283,-0.283,0,-0.2678,-0.2692,-0.2703,-0.272,-0.273,-0.2745,-0.2753,-0.2763,-0.2766,-0.2773,-0.2793,-0.2806,-0.2823,-0.2829,-0.2832,-0.2855,-0.2852,-0.285,-0.2844,-0.286,-0.2868,-0.2871,-0.2831,-0.2831,-0.283,-0.283,0,0,-0.2698,-0.2717,-0.2721,-0.2729,-0.2745,-0.2757,-0.2773,-0.2789,-0.2798,-0.281,-0.2825,-0.2847,-0.2845,-0.2855,-0.2859,-0.287,-0.2889,-0.2867,-0.2867,-0.2871,-0.2916,-0.2917,-0.2921,-0.2889,-0.289,-0.2891,-0.2915,0,-0.2719,-0.2746,-0.2751,-0.2775,-0.2789,-0.2791,-0.2805,-0.2817,-0.2824,-0.2837,-0.2846,-0.2861,-0.2857,-0.2863,-0.2875,-0.2884,-0.2898,-0.2882,-0.2904,-0.2904,-0.29,-0.2925,-0.2927,-0.2949,-0.2918,-0.2918,-0.2919,0,-0.2746,-0.2759,-0.2784,-0.2798,-0.2804,-0.2817,-0.2833,-0.2845,-0.2859,-0.2863,-0.2875,-0.2878,-0.2896,-0.2888,-0.2913,-0.2903,-0.2912,-0.2918,-0.2919,-0.2922,-0.2913,-0.2929,-0.2956,-0.296,-0.2924,-0.2923,-0.2923,0,-0.2759,-0.2783,-0.2801,-0.2808,-0.2825,-0.2833,-0.2841,-0.2854,-0.2864,-0.2878,-0.2885,-0.2901,-0.291,-0.2923,-0.2931,-0.2925,-0.2956,-0.2949,-0.2961,-0.2961,-0.2968,-0.2968,-0.2998,-0.2973,-0.2973,-0.2973,-0.2973,0,-0.2781,-0.2797,-0.2807,-0.2819,-0.2837,-0.2843,-0.2861,-0.2868,-0.288,-0.2894,-0.2897,-0.291,-0.2919,-0.2934,-0.2941,-0.2961,-0.2965,-0.297,-0.2972,-0.297,-0.2969,-0.2976,-0.2975,-0.2974,-0.2974,-0.2974,-0.2973,0,-0.2799,-0.2806,-0.2827,-0.2841,-0.2845,-0.2858,-0.287,-0.2882,-0.2889,-0.2907,-0.2911,-0.2923,-0.294,-0.2949,-0.2971,-0.2976,-0.2999,-0.3,-0.2994,-0.2995,-0.3007,-0.3006,-0.3043,-0.3049,-0.302,-0.302,-0.302,0,-0.2813,-0.2825,-0.2841,-0.285,-0.2857,-0.2872,-0.2881,-0.2888,-0.2899,-0.2915,-0.2925,-0.2943,-0.2957,-0.2986,-0.2997,-0.3014,-0.3015,-0.3027,-0.3018,-0.3016,-0.3016,-0.3016,-0.3018,-0.3029,-0.3029,-0.3029,-0.303,0,-0.2838,-0.2841,-0.2854,-0.2869,-0.2881,-0.2893,-0.2905,-0.2913,-0.2922,-0.2933,-0.2951,-0.2962,-0.2984,-0.3002,-0.302,-0.303,-0.3032,-0.3032,-0.3036,-0.3035,-0.3032,-0.3034,-0.2999,-0.3032,-0.3031,-0.3031,-0.3031,-0.3031,-0.2855,-0.2866,-0.2878,-0.2893,-0.2903,-0.2915,-0.2926,-0.2935,-0.2949,-0.2967,-0.2971,-0.299,-0.3004,-0.3029,-0.3038,-0.3054,-0.3052,-0.3057,-0.3059,-0.306,-0.3061,-0.3029,-0.3057,-0.3057,-0.3057,-0.3057,-0.3057,0,-0.288,-0.2888,-0.2902,-0.2919,-0.2931,-0.293,-0.2944,-0.2955,-0.2971,-0.2984,-0.2998,-0.3018,-0.3036,-0.3048,-0.3066,-0.3077,-0.3078,-0.3081,-0.3081,-0.3083,-0.3062,-0.3057,-0.308,-0.308,-0.308,-0.308,-0.308,-0.308,-0.2895,-0.2914,-0.2918,-0.2942,-0.295,-0.2968,-0.2976,-0.2987,-0.2997,-0.302,-0.3034,-0.3042,-0.3055,-0.3074,-0.309,-0.3094,-0.3101,-0.3104,-0.3107,-0.3087,-0.3085,-0.3082,-0.3078,-0.3105,-0.3105,-0.3128,-0.3128,-0.3128]}]]